weather.gov     
National Weather Service

Regional Weather Roundup
NWS Homepage
This page is being discontinued on March 12, 2014.
The same data is available at this site. Please update your bookmarks.
Thank you, and we apologize for the inconvenience.
Please send an email to SR-SRH.Webmaster@noaa.gov with any concerns.


Current Version
Previous Version:    01  02  03  04  05  06  07  08  09  10  11  12  13  14  15  16  17  18  19  20  21  22  23  24  25  26  27  28  29  30  
   31  32  33  34  35  36  37  38  39  40  41  42  43  44  45  46  47  48  49  50  51  52  53  54  55  56  57  58  59  60  
[Printable]
584
ASCA44 KEWX 231320
RWRMX

LATIN AMERICA AND CARIBBEAN REGIONAL WEATHER ROUNDUP
NATIONAL WEATHER SERVICE AUSTIN/SAN ANTONIO TX
800 AM CDT SAT AUG 23 2014

NOTE: "FAIR" INDICATED FEW OR NO CLOUDS BELOW 12,000 FEET WITH NO
SIGNIFICANT WEATHER AND/OR OBSTRUCTIONS TO VISIBILITY.

BAJA CALIFORNIA

CITY           SKY/WX    TMP DP  RH WIND       PRES   REMARKS
LORETO         MOCLDY    86  70  58 CALM      29.80  HX  90
TIJUANA        CLEAR     63  59  88 CALM      29.98R

NORTHWESTERN MEXICO

CITY           SKY/WX    TMP DP  RH WIND       PRES   REMARKS
DURANGO        CLEAR     52  50  93 NW5       30.25R
CD. JUAREZ     PTCLDY    68  61  77 S7        30.07
LOS MOCHIS     MOCLDY    81  73  78 CALM      29.82

NORTHEASTERN MEXICO

CITY           SKY/WX    TMP DP  RH WIND       PRES   REMARKS
CHIHUAHUA      MOCLDY    64  61  88 CALM      30.15
MATAMOROS      PTSUNNY   77  77 100 CALM      29.99
MONCLOVA       PTCLDY   N/A N/A N/A CALM      29.99
MONTERREY      MOCLDY    72  66  83 CALM      29.99R
NUEVO LAREDO   CLEAR     79  73  83 SE6       29.96
PIEDRAS NEGRAS PTCLDY    77  66  69 SE6       29.99
REYNOSA        MOSUNNY   75  72  88 SE3       29.96  HAZE
SALTILLO       CLEAR     68  54  60 S8        30.20R
TORREON        PTCLDY    72  52  49 CALM      30.10R
CD. VICTORIA   MOCLDY    75  68  78 SE8       29.97

WESTERN MEXICO

CITY           SKY/WX    TMP DP  RH WIND       PRES   REMARKS
AGUASCALIENTES CLEAR     54  48  82 N5        30.28
DEL BAJIO      PTCLDY    61  55  82 N3        30.29R
GUADALAJARA    MOCLDY    64  57  77 S5        30.16
MANZANILLO     MOCLDY    77  72  83 NE7       29.80
MAZATLAN       PTCLDY    75  73  94 NE7       29.82R
P. VALLARTA    PTCLDY    75  72  88 N5        29.85S
URUAPAN        MOCLDY    61  57  88 CALM      30.18R
ZACATECAS      CLEAR     52  45  76 CALM      30.29S

CENTRAL MEXICO

CITY           SKY/WX    TMP DP  RH WIND       PRES   REMARKS
CUERNAVACA     MOCLDY    64  55  72 CALM      30.17R
MEXICO CITY    MOCLDY    59  50  72 NW5       30.33S
MORELIA        FOG       54  54 100 CALM      30.25  VSB 1/4
POZA RICA      FOG       77  75  94 CALM      29.99S VSB 3/4
PUEBLA         MOCLDY    50  46  87 NW3       30.33F
QUERETARO      MOCLDY    57  52  82 CALM      30.28F
S. LUIS POTOSI PTCLDY    55  54  94 N5        30.27R
TAMPICO        MOSUNNY   77  75  94 CALM      29.96S
TOLUCA         PTCLDY    45  41  87 SE5       30.40S WCI  42

SOUTHERN MEXICO

CITY           SKY/WX    TMP DP  RH WIND       PRES   REMARKS
ACAPULCO       CLOUDY    77  73  88 N3        29.91R
B. DE HUATULCO PTSUNNY   73  64  73 NW7       29.90
OAXACA         PTSUNNY   55  54  94 CALM      30.22F
P. ESCONDIDO   MOCLDY    75  70  83 NE7       30.01S
VERACRUZ       PTSUNNY   73  72  94 NW3       29.94R
ZIHUATANEJO    CLOUDY    75  72  88 SE5       29.92R

YUCATAN PENINSULA

CITY           SKY/WX    TMP DP  RH WIND       PRES   REMARKS
CAMPECHE       MOSUNNY   75  73  94 CALM      29.94R
CANCUN         SUNNY     79  77  94 CALM      29.95R
CHETUMAL       MOSUNNY   77  68  73 CALM      29.92
CD. DEL CARMEN MOSUNNY   79  72  78 SE12      29.94
COZUMEL        MOSUNNY   77  77 100 CALM      29.95R
MERIDA         MOSUNNY   77  72  83 CALM      29.97R
MINATITLAN     PTSUNNY   75  66  73 S7        29.92
TAPACHULA      SUNNY     73  70  88 CALM      29.88R
TUX. GUTIERREZ PTSUNNY   68  66  94 CALM      30.00R
VILLAHERMOSA   MOSUNNY   73  72  94 CALM      29.96

CENTRAL AMERICA

CITY           SKY/WX    TMP DP  RH WIND       PRES   REMARKS
BELIZE CITY    MOSUNNY   77  75  94 NW5       29.93S
MANAGUA        MOSUNNY   77  73  88 S5        29.86R

CARIBBEAN

CITY           SKY/WX    TMP DP  RH WIND       PRES   REMARKS
ARUBA          MOSUNNY   86  77  74 SE9       29.80S HX  97
KINGSTON       MOSUNNY   86  75  70 NW3       29.80R HX  95
NASSAU         MOSUNNY   84  77  79 E5        29.94R HX  94
SAN JUAN       PTSUNNY   82  75  78 SE8       29.90R
SANTO DOMINGO  CLOUDY    77  75  94 CALM      29.83R
ST. CROIX      MOSUNNY   84  79  84 SE13G21   29.93R HX  96
ST. KITTS      MOSUNNY   82  77  83 N9        29.94S HX  91
ST. MAARTEN    MOSUNNY   84  73  70 SE12      29.94S HX  91

$$





U.S. Dept. of Commerce
NOAA National Weather Service
1325 East West Highway
Silver Spring, MD 20910
E-mail: w-nws.webmaster@noaa.gov
Page last modified: May 16, 2007
NATIONAL WEATHER SERVICE: for Safety, for Work, for Fun - FOR LIFE